Powrót do katalogu

FENGYUN 1C DEB

AktywnyPO
NORAD 31348·DEBRIS·🇨🇳 China

Wystrzelony May 10, 1999 z Taiyuan Satellite Launch Center

Loading…

Następne Przeloty (najbliższe 24 godziny)

TLE

ŚwieżeSource: Space-Track

Epoka: Sep 14, 2026, 10:14 UTC

1 31348U 99025BRC 26257.42691516  .00002205  00000-0  77502-3 0  9993
2 31348  99.1483 229.2713 0033346 344.8120 169.3525 14.35740127  1952

Śledź FENGYUN 1C DEB w czasie rzeczywistym z AllMySat

Download on the App Store